When you browse on this site, cookies collect data to enhance your experience and personalize the content and advertising you see.
Visit our Privacy Policy to learn more. By continuing to use the site, you agree to this use of cookies and data.
  • en France
  • Liste des pays
  • À 7 jours
  • Température de l'eau
  • Carte météo
  • Widgets météo
  • user-avatar
    Se connecter

    Météo par heure à Hoddesdon

    Ce jour, 19 Août, Lundi

    Heure Température Précipitation Vent Pression Humidité
    00:00 +14°C° 0 mm 5 m/s 754 mmHg 78%
    01:00 +14°C° 0 mm 5 m/s 754 mmHg 79%
    02:00 +13°C° 0 mm 5 m/s 754 mmHg 81%
    03:00 +13°C° 0 mm 5 m/s 754 mmHg 82%
    04:00 +13°C° 0 mm 5 m/s 754 mmHg 82%
    05:00 +13°C° 0 mm 5 m/s 755 mmHg 82%
    06:00 +13°C° 0 mm 5 m/s 755 mmHg 82%
    07:00 +14°C° 0 mm 5 m/s 755 mmHg 78%
    08:00 +16°C° 0 mm 6 m/s 756 mmHg 73%
    09:00 +17°C° 0 mm 6 m/s 756 mmHg 69%
    10:00 +19°C° 0 mm 6 m/s 757 mmHg 64%
    11:00 +20°C° 0 mm 5 m/s 757 mmHg 59%
    12:00 +21°C° 0 mm 5 m/s 757 mmHg 53%
    13:00 +21°C° 0.1 mm 5 m/s 757 mmHg 53%
    14:00 +22°C° 0.1 mm 6 m/s 757 mmHg 52%
    15:00 +22°C° 0.1 mm 6 m/s 758 mmHg 51%
    16:00 +21°C° 0.2 mm 6 m/s 758 mmHg 54%
    17:00 +20°C° 0.2 mm 5 m/s 758 mmHg 57%
    18:00 +19°C° 0.2 mm 5 m/s 758 mmHg 60%
    19:00 +17°C° 0 mm 5 m/s 759 mmHg 64%
    20:00 +17°C° 0 mm 4 m/s 759 mmHg 68%
    21:00 +15°C° 0 mm 4 m/s 760 mmHg 72%
    22:00 +14°C° 0 mm 4 m/s 760 mmHg 75%
    23:00 +13°C° 0 mm 4 m/s 760 mmHg 77%

    Demain, 20 Août, Mardi

    Heure Température Précipitation Vent Pression Humidité
    00:00 +13°C° 0 mm 3 m/s 760 mmHg 79%
    01:00 +12°C° 0 mm 3 m/s 761 mmHg 81%
    02:00 +12°C° 0 mm 3 m/s 761 mmHg 83%
    03:00 +12°C° 0 mm 3 m/s 761 mmHg 85%
    04:00 +12°C° 0 mm 3 m/s 761 mmHg 85%
    05:00 +12°C° 0 mm 3 m/s 762 mmHg 85%
    06:00 +12°C° 0 mm 3 m/s 762 mmHg 85%
    07:00 +13°C° 0 mm 3 m/s 762 mmHg 78%
    08:00 +16°C° 0 mm 3 m/s 763 mmHg 71%
    09:00 +17°C° 0 mm 4 m/s 763 mmHg 64%
    10:00 +18°C° 0 mm 4 m/s 763 mmHg 60%
    11:00 +19°C° 0 mm 4 m/s 764 mmHg 56%
    12:00 +19°C° 0 mm 5 m/s 764 mmHg 52%
    13:00 +19°C° 0 mm 5 m/s 764 mmHg 51%
    14:00 +20°C° 0 mm 5 m/s 764 mmHg 50%
    15:00 +20°C° 0 mm 5 m/s 764 mmHg 49%
    16:00 +19°C° 0 mm 4 m/s 764 mmHg 52%
    17:00 +19°C° 0 mm 3 m/s 764 mmHg 55%
    18:00 +19°C° 0 mm 3 m/s 765 mmHg 58%
    19:00 +18°C° 0 mm 3 m/s 765 mmHg 64%
    20:00 +17°C° 0 mm 3 m/s 766 mmHg 70%
    21:00 +16°C° 0 mm 3 m/s 766 mmHg 76%
    22:00 +14°C° 0 mm 3 m/s 766 mmHg 79%
    23:00 +15°C° 0 mm 2 m/s 766 mmHg 82%

    Après-demain, 21 Août, Mercredi

    Heure Température Précipitation Vent Pression Humidité
    00:00 +14°C° 0 mm 2 m/s 766 mmHg 85%
    01:00 +14°C° 0 mm 2 m/s 766 mmHg 86%
    02:00 +14°C° 0 mm 2 m/s 766 mmHg 87%
    03:00 +13°C° 0 mm 2 m/s 766 mmHg 87%
    04:00 +14°C° 0 mm 2 m/s 766 mmHg 87%
    05:00 +14°C° 0 mm 2 m/s 766 mmHg 86%
    06:00 +14°C° 0 mm 2 m/s 766 mmHg 85%
    07:00 +15°C° 0 mm 2 m/s 766 mmHg 78%
    08:00 +17°C° 0 mm 2 m/s 766 mmHg 71%
    09:00 +18°C° 0 mm 3 m/s 766 mmHg 64%
    10:00 +19°C° 0 mm 3 m/s 766 mmHg 60%
    11:00 +20°C° 0 mm 3 m/s 765 mmHg 56%
    12:00 +21°C° 0 mm 3 m/s 765 mmHg 52%
    13:00 +22°C° 0 mm 4 m/s 765 mmHg 51%
    14:00 +22°C° 0 mm 4 m/s 765 mmHg 50%
    15:00 +22°C° 0 mm 5 m/s 764 mmHg 50%
    16:00 +21°C° 0 mm 4 m/s 764 mmHg 52%
    17:00 +20°C° 0 mm 4 m/s 764 mmHg 55%
    18:00 +19°C° 0 mm 4 m/s 764 mmHg 57%
    19:00 +18°C° 0 mm 4 m/s 764 mmHg 61%
    20:00 +17°C° 0 mm 4 m/s 764 mmHg 64%
    21:00 +16°C° 0 mm 3 m/s 764 mmHg 68%
    22:00 +16°C° 0 mm 3 m/s 764 mmHg 70%
    23:00 +14°C° 0 mm 3 m/s 764 mmHg 72%

    22 Août, Jeudi

    Heure Température Précipitation Vent Pression Humidité
    00:00 +14°C° 0 mm 3 m/s 764 mmHg 74%
    01:00 +14°C° 0 mm 3 m/s 763 mmHg 75%
    02:00 +14°C° 0 mm 3 m/s 763 mmHg 76%
    03:00 +14°C° 0 mm 4 m/s 763 mmHg 77%
    04:00 +14°C° 0.1 mm 4 m/s 763 mmHg 79%
    05:00 +14°C° 0.1 mm 4 m/s 763 mmHg 80%
    06:00 +14°C° 0.1 mm 4 m/s 763 mmHg 82%
    07:00 +15°C° 0 mm 4 m/s 764 mmHg 79%
    08:00 +17°C° 0 mm 4 m/s 764 mmHg 77%
    09:00 +18°C° 0 mm 4 m/s 764 mmHg 74%
    10:00 +19°C° 0.1 mm 4 m/s 764 mmHg 69%
    11:00 +21°C° 0.1 mm 4 m/s 764 mmHg 64%
    12:00 +22°C° 0.1 mm 4 m/s 764 mmHg 58%
    13:00 +22°C° 0 mm 4 m/s 764 mmHg 55%
    14:00 +23°C° 0 mm 4 m/s 764 mmHg 53%
    15:00 +23°C° 0 mm 4 m/s 764 mmHg 50%
    16:00 +22°C° 0 mm 4 m/s 764 mmHg 52%
    17:00 +22°C° 0 mm 3 m/s 764 mmHg 55%
    18:00 +21°C° 0 mm 3 m/s 764 mmHg 57%
    19:00 +20°C° 0 mm 2 m/s 764 mmHg 62%
    20:00 +19°C° 0 mm 2 m/s 764 mmHg 68%
    21:00 +17°C° 0 mm 2 m/s 765 mmHg 73%
    22:00 +17°C° 0 mm 2 m/s 764 mmHg 76%
    23:00 +17°C° 0 mm 2 m/s 764 mmHg 79%

    23 Août, Vendredi

    Heure Température Précipitation Vent Pression Humidité
    00:00 +16°C° 0 mm 2 m/s 764 mmHg 82%
    01:00 +16°C° 0 mm 2 m/s 764 mmHg 84%
    02:00 +16°C° 0 mm 2 m/s 764 mmHg 87%
    03:00 +16°C° 0 mm 2 m/s 763 mmHg 89%
    04:00 +16°C° 0 mm 2 m/s 763 mmHg 89%
    05:00 +16°C° 0 mm 2 m/s 764 mmHg 88%
    06:00 +16°C° 0 mm 2 m/s 764 mmHg 88%
    07:00 +17°C° 0 mm 2 m/s 764 mmHg 81%
    08:00 +19°C° 0 mm 2 m/s 764 mmHg 75%
    09:00 +20°C° 0 mm 3 m/s 764 mmHg 68%
    10:00 +22°C° 0 mm 3 m/s 764 mmHg 62%
    11:00 +24°C° 0 mm 3 m/s 763 mmHg 57%
    12:00 +25°C° 0 mm 3 m/s 763 mmHg 51%
    13:00 +25°C° 0 mm 3 m/s 763 mmHg 50%
    14:00 +26°C° 0 mm 2 m/s 763 mmHg 49%
    15:00 +26°C° 0 mm 2 m/s 762 mmHg 47%
    16:00 +25°C° 0 mm 2 m/s 762 mmHg 51%
    17:00 +25°C° 0 mm 2 m/s 762 mmHg 55%
    18:00 +24°C° 0 mm 2 m/s 762 mmHg 59%
    19:00 +23°C° 0 mm 2 m/s 762 mmHg 63%
    20:00 +21°C° 0 mm 1 m/s 762 mmHg 66%
    21:00 +20°C° 0 mm 1 m/s 762 mmHg 69%
    22:00 +20°C° 0 mm 1 m/s 762 mmHg 70%
    23:00 +19°C° 0 mm 1 m/s 761 mmHg 71%

    24 Août, Samedi

    Heure Température Précipitation Vent Pression Humidité
    00:00 +19°C° 0 mm 1 m/s 761 mmHg 72%
    01:00 +18°C° 0 mm 1 m/s 761 mmHg 72%
    02:00 +18°C° 0 mm 1 m/s 761 mmHg 72%
    03:00 +18°C° 0 mm 1 m/s 760 mmHg 72%
    04:00 +18°C° 0 mm 1 m/s 760 mmHg 72%
    05:00 +18°C° 0 mm 1 m/s 760 mmHg 71%
    06:00 +18°C° 0 mm 1 m/s 760 mmHg 71%
    07:00 +20°C° 0 mm 1 m/s 760 mmHg 65%
    08:00 +21°C° 0 mm 2 m/s 760 mmHg 59%
    09:00 +23°C° 0 mm 2 m/s 760 mmHg 54%
    10:00 +25°C° 0 mm 2 m/s 759 mmHg 50%
    11:00 +26°C° 0 mm 2 m/s 759 mmHg 46%
    12:00 +27°C° 0 mm 2 m/s 759 mmHg 41%
    13:00 +27°C° 0 mm 2 m/s 759 mmHg 41%
    14:00 +28°C° 0 mm 3 m/s 758 mmHg 41%
    15:00 +28°C° 0 mm 3 m/s 758 mmHg 40%
    16:00 +27°C° 0 mm 3 m/s 758 mmHg 46%
    17:00 +25°C° 0 mm 3 m/s 757 mmHg 52%
    18:00 +24°C° 0 mm 3 m/s 757 mmHg 58%
    19:00 +22°C° 0 mm 3 m/s 757 mmHg 62%
    20:00 +21°C° 0 mm 2 m/s 757 mmHg 66%
    21:00 +20°C° 0 mm 2 m/s 757 mmHg 69%
    22:00 +20°C° 0 mm 2 m/s 757 mmHg 69%
    23:00 +19°C° 0 mm 2 m/s 757 mmHg 69%
    Voir plus